{"data":{"norad_id":62202,"epoch":"2026-09-21T22:45:10.750176Z","epoch_age_seconds":52482,"freshness":"FRESH","line1":"1 62202U 24229L   26264.94804109 -.00000649  00000+0 -14065-4 0  9996","line2":"2 62202  42.9992 242.5993 0001425 248.8955 111.1744 15.27596304100570","mean_motion":15.27596304,"eccentricity":0.0001425,"inclination_deg":42.9992,"raan_deg":242.5993,"arg_perigee_deg":248.8955,"mean_anomaly_deg":111.1744,"bstar":-1.4065e-5,"rev_number":10057,"period_min":94.265742606824,"perigee_km":482.02256437064,"apogee_km":483.97798849442,"semimajor_km":6861.1372764325,"source":"CELESTRAK","updated_at":"2026-09-22T09:00:49.540920Z"}}